TimeCST,TemperatureF,Dew PointF,Humidity,Sea Level PressureIn,VisibilityMPH,Wind Direction,Wind SpeedMPH,Gust SpeedMPH,PrecipitationIn,Events,Conditions,WindDirDegrees,DateUTC
12:54 AM,24.1,10.0,55,30.41,10.0,NNW,16.1,-,0.01,,Clear,340,2013-01-24 06:54:00
1:54 AM,21.0,8.1,57,30.45,10.0,North,17.3,-,N/A,,Clear,10,2013-01-24 07:54:00
2:54 AM,18.0,5.0,57,30.49,10.0,North,17.3,24.2,N/A,,Clear,10,2013-01-24 08:54:00
3:54 AM,16.0,5.0,62,30.51,10.0,North,13.8,-,N/A,,Clear,10,2013-01-24 09:54:00
4:54 AM,15.1,5.0,64,30.54,10.0,North,10.4,-,N/A,,Clear,10,2013-01-24 10:54:00
5:54 AM,15.1,5.0,64,30.56,10.0,NNE,12.7,-,N/A,,Clear,30,2013-01-24 11:54:00
6:54 AM,14.0,6.1,71,30.57,10.0,NE,8.1,-,N/A,,Clear,40,2013-01-24 12:54:00
7:54 AM,15.1,5.0,64,30.59,10.0,NE,10.4,-,N/A,,Clear,40,2013-01-24 13:54:00
8:54 AM,17.1,3.0,54,30.61,10.0,NE,11.5,-,N/A,,Clear,50,2013-01-24 14:54:00
9:54 AM,18.0,1.0,48,30.63,10.0,NE,11.5,-,N/A,,Clear,50,2013-01-24 15:54:00
10:54 AM,19.0,1.9,47,30.61,10.0,ENE,15.0,-,N/A,,Clear,60,2013-01-24 16:54:00
11:54 AM,21.0,3.9,48,30.59,10.0,East,11.5,-,N/A,,Clear,80,2013-01-24 17:54:00
12:54 PM,21.9,6.1,51,30.54,10.0,ESE,12.7,-,N/A,,Clear,120,2013-01-24 18:54:00
1:54 PM,23.0,7.0,50,30.51,10.0,ESE,12.7,-,N/A,,Clear,110,2013-01-24 19:54:00
2:54 PM,25.0,8.1,49,30.49,10.0,East,15.0,-,N/A,,Clear,100,2013-01-24 20:54:00
3:54 PM,25.0,7.0,46,30.45,10.0,SE,13.8,-,N/A,,Clear,130,2013-01-24 21:54:00
4:54 PM,24.1,9.0,53,30.43,10.0,ESE,11.5,-,N/A,,Clear,110,2013-01-24 22:54:00
5:54 PM,24.1,9.0,53,30.42,10.0,ESE,13.8,-,N/A,,Clear,110,2013-01-24 23:54:00
6:54 PM,24.1,9.0,53,30.41,10.0,ESE,13.8,-,N/A,,Clear,110,2013-01-25 00:54:00
7:54 PM,24.1,9.0,53,30.40,10.0,ESE,12.7,-,N/A,,Overcast,110,2013-01-25 01:54:00
8:54 PM,25.0,9.0,51,30.35,10.0,ESE,13.8,-,N/A,,Overcast,120,2013-01-25 02:54:00
9:54 PM,25.0,9.0,51,30.33,10.0,SE,13.8,-,N/A,,Overcast,140,2013-01-25 03:54:00
10:54 PM,26.1,10.0,51,30.29,10.0,SE,13.8,-,N/A,,Overcast,140,2013-01-25 04:54:00
11:54 PM,27.0,9.0,47,30.29,10.0,ESE,8.1,-,N/A,,Overcast,110,2013-01-25 05:54:00